Wind_Speed
32 33 35 36 37 37 36 37 35 34 33 32 31 30 30 29 29 29 29 29 29 29 27 25 25 27 29 31 30 29 29 27 27 27 27 26 27 28 28 25 22 22 22 22 20 18 18 19 19 19 19 19 18 18 18 18 19 20 20 21 21 20 20 20 20 20 20 21 21 22 23 23 24 25 26 27 27 27 28 28 29 29 29 29 30
34 35 36 36 36 36 36 35 33 32 32 31 31 31 31 30 30 30 30 30 30 29 27 25 26 29 31 32 31 30 29 29 27 27 27 25 26 28 28 25 22 21 21 20 17 15 17 19 20 20 20 19 18 18 18 18 19 19 20 20 20 20 20 20 20 20 20 20 20 21 22 23 24 25 25 26 26 27 27 27 27 27 27 27 27
35 35 35 35 35 36 35 33 32 32 30 30 30 31 30 29 29 31 31 32 32 30 27 25 26 29 32 33 32 30 30 29 28 28 27 25 25 27 28 24 21 20 20 19 14 14 18 20 20 20 20 19 19 18 18 18 18 19 19 20 20 20 20 20 20 20 20 20 20 20 21 22 23 23 24 24 25 25 25 25 25 24 24 23 23
36 35 35 35 35 35 34 32 32 31 30 31 30 30 28 27 28 30 31 32 33 30 27 25 27 29 32 33 32 31 30 30 29 29 28 26 25 26 27 24 19 18 19 18 14 14 18 20 20 20 20 19 19 18 18 18 18 18 19 19 20 20 20 20 20 20 20 19 19 19 20 20 21 21 21 22 22 22 22 21 20 19 18 17 17
36 35 33 33 34 35 34 34 32 30 32 33 32 30 27 27 27 29 30 32 34 31 28 26 28 29 32 34 31 30 30 30 29 29 29 27 25 26 26 23 18 17 18 18 15 15 18 20 20 19 19 19 18 18 18 17 17 17 17 18 19 19 20 20 19 19 18 17 17 17 18 18 18 19 19 19 19 19 18 17 15 13 11 10 11
36 33 32 32 34 34 34 33 32 32 34 34 33 31 27 27 28 29 31 33 33 30 28 28 29 30 32 34 31 29 30 30 29 29 29 28 26 26 26 23 18 17 18 18 17 18 19 21 21 20 19 18 18 18 18 18 17 17 16 17 18 19 19 19 18 17 16 15 14 15 16 16 17 17 17 17 17 17 16 14 11 8 6 7 9
34 32 30 31 31 31 31 31 31 32 33 33 33 31 29 29 30 31 32 32 31 29 29 30 30 30 31 34 32 29 29 30 29 29 29 28 27 26 26 23 18 17 17 18 19 19 21 23 22 20 19 18 17 17 17 18 19 19 18 17 17 18 18 18 18 17 15 15 15 15 15 16 17 17 17 17 17 17 15 12 9 7 7 9 11
34 33 32 32 31 30 31 32 33 34 32 31 31 31 31 31 32 32 31 30 29 29 30 31 30 29 30 33 32 29 29 30 29 28 28 28 27 26 25 23 19 17 17 18 19 20 22 23 23 21 19 17 16 16 16 17 18 20 20 20 19 19 18 18 18 19 17 16 17 16 16 17 18 18 18 17 17 16 14 12 10 10 10 11 13
37 36 35 36 35 34 36 37 37 36 33 31 31 31 30 31 32 31 30 30 29 29 29 30 29 29 30 32 32 29 28 29 29 28 28 28 27 26 25 24 20 18 18 18 19 20 22 23 23 22 20 18 16 15 15 15 16 18 19 20 21 20 20 19 19 20 19 18 18 18 18 19 19 19 18 17 15 14 13 13 13 13 13 14 15
41 39 37 37 38 39 40 40 38 36 33 32 32 32 32 31 31 31 31 30 29 28 27 28 29 29 30 32 31 29 28 28 29 28 28 28 27 26 25 24 21 19 19 19 19 20 21 23 23 23 22 19 16 16 16 16 16 17 18 18 20 21 21 20 20 20 20 20 20 20 20 20 20 20 18 17 15 15 15 15 16 17 17 17 19
43 41 40 40 42 43 41 40 38 37 35 33 34 36 35 33 32 32 31 30 29 27 27 27 29 30 30 32 31 28 27 28 28 28 27 28 27 26 24 24 23 21 20 21 21 21 22 23 23 24 24 20 17 17 17 18 18 18 18 18 18 19 21 21 21 22 21 21 21 21 21 22 22 22 20 18 17 17 18 18 19 20 21 22 24
42 41 42 43 43 43 42 41 40 39 37 34 34 35 35 34 33 33 32 31 29 28 27 28 29 31 31 32 31 27 27 28 28 27 27 28 27 26 24 24 24 22 22 23 24 24 24 24 24 24 25 21 18 17 18 19 20 21 21 20 19 19 19 21 22 23 23 22 22 22 22 23 23 24 24 22 21 21 22 23 24 25 27 28 30
40 40 41 42 42 41 41 41 41 40 37 34 33 34 35 34 33 33 33 32 31 30 29 29 31 32 33 33 31 28 28 29 29 27 27 27 27 26 25 25 25 24 23 24 26 27 27 26 25 25 25 22 19 18 19 20 21 22 22 22 22 21 20 20 22 23 24 24 24 24 24 24 24 25 26 26 27 28 28 29 31 32 33 35 36
41 42 43 43 43 42 41 41 41 41 38 36 35 35 35 34 33 33 33 33 32 32 31 31 32 33 34 33 31 28 28 30 29 28 27 28 27 26 25 25 25 25 25 25 27 28 29 28 26 26 25 22 20 20 21 23 23 23 23 23 24 24 23 22 22 23 24 25 25 26 27 27 26 26 27 28 30 31 32 34 35 36 37 38 39
45 45 45 46 46 45 44 42 42 41 40 38 37 35 34 33 33 32 32 33 34 34 34 33 33 33 34 33 31 29 29 30 30 28 27 28 28 27 26 25 26 25 25 26 28 29 30 29 27 27 25 23 22 22 24 25 26 25 24 24 26 26 25 25 25 25 25 25 26 27 28 29 30 30 30 29 30 32 33 34 35 36 37 37 38
46 45 45 46 46 47 46 45 44 43 42 40 38 35 34 33 32 31 32 33 34 35 34 33 33 33 33 32 31 31 30 29 30 29 28 28 28 27 27 26 26 25 26 27 29 30 30 29 28 28 26 25 25 25 27 27 27 27 26 26 27 27 28 28 28 29 28 27 27 27 28 30 31 33 33 33 33 34 34 35 36 37 37 38 38
46 45 44 44 44 45 45 45 45 44 43 42 39 36 34 33 32 32 33 33 34 34 33 33 33 33 32 31 32 32 30 30 30 29 28 28 28 28 27 27 26 26 26 27 28 28 28 28 29 29 28 28 29 30 30 30 30 30 30 30 30 30 31 31 31 32 32 31 31 30 30 30 32 33 35 36 36 37 38 38 39 40 40 41 42
46 46 46 44 43 42 43 43 43 43 43 42 41 38 35 33 32 33 33 33 33 33 33 33 33 33 32 32 33 33 31 30 30 29 28 28 28 28 28 28 27 27 27 27 28 28 30 30 30 30 30 30 31 32 33 32 32 34 34 34 33 33 34 34 34 34 35 35 34 33 33 32 33 34 35 36 37 39 40 41 42 42 43 43 44
47 49 48 46 45 43 43 43 42 42 42 41 41 38 36 33 33 33 32 32 32 32 33 34 34 34 34 34 34 33 31 30 30 29 28 28 28 28 29 29 29 29 29 29 29 30 32 32 32 31 31 30 31 32 34 34 35 37 37 33 31 32 33 34 35 35 36 36 36 36 36 36 35 35 36 36 38 39 40 41 42 44 44 45 45
48 49 48 47 46 46 44 43 43 43 42 41 40 38 35 33 32 32 31 31 31 31 32 34 35 35 36 36 36 33 31 30 30 29 28 28 28 29 29 29 30 30 30 30 30 30 30 31 31 32 32 32 32 33 34 35 36 38 35 31 30 32 34 36 36 36 36 36 37 37 37 37 37 36 37 38 39 41 42 43 44 45 45 46 46
48 48 49 48 47 46 46 45 44 43 42 41 39 37 34 32 31 30 30 31 30 31 32 34 35 36 38 38 37 34 31 30 29 28 28 28 29 29 30 30 30 30 31 31 30 29 28 29 30 31 32 32 33 34 35 37 38 37 32 30 33 35 36 38 38 38 38 38 38 38 38 38 38 39 40 41 42 43 44 45 46 46 47 47 47
49 50 51 51 50 48 47 47 44 41 40 39 38 36 33 32 31 29 29 30 30 32 34 35 36 37 39 39 37 34 31 30 29 28 28 29 29 30 30 31 31 31 31 31 31 29 28 28 30 31 32 33 34 34 36 37 36 34 32 33 36 37 38 39 39 40 42 42 42 41 41 41 42 42 43 44 44 45 45 46 47 48 48 49 49
53 53 53 53 51 49 49 47 44 41 38 36 34 32 31 31 31 30 29 29 31 34 36 37 37 38 40 40 38 34 31 29 28 28 29 29 30 30 31 32 31 31 31 31 31 30 30 31 32 33 34 35 35 34 35 34 32 32 34 37 38 39 41 42 43 44 46 47 48 47 44 44 45 45 46 46 47 47 47 47 48 48 49 50 50
56 55 54 53 51 50 50 47 43 41 37 33 30 29 29 31 32 31 31 32 34 37 38 38 38 39 40 40 38 34 32 29 28 28 29 29 30 31 31 32 32 32 32 31 30 29 30 33 35 36 37 37 35 34 32 31 33 35 37 38 39 42 43 45 46 48 50 51 52 50 46 45 45 46 47 48 48 49 49 49 49 49 50 51 52
56 56 54 53 51 50 48 44 41 38 35 33 31 30 30 31 32 32 33 36 39 40 40 39 39 39 39 39 38 35 32 30 28 29 29 30 30 31 32 33 33 32 32 31 29 28 30 33 36 37 38 37 35 32 30 32 36 38 38 38 40 43 45 47 48 50 52 51 49 48 46 44 45 46 48 48 49 49 50 50 50 51 51 52 53
56 55 54 52 49 46 44 41 38 36 35 35 36 34 31 30 31 33 36 40 42 41 40 40 40 38 38 38 38 36 32 30 29 29 30 30 30 31 32 33 33 32 31 30 28 29 32 35 37 38 38 36 33 30 31 35 38 39 39 39 42 45 46 48 49 51 50 47 45 43 43 43 43 45 47 48 49 50 50 51 51 52 52 52 52
56 56 54 51 46 42 41 39 38 37 36 37 38 37 35 34 36 39 41 43 42 40 40 40 40 38 37 37 37 36 33 31 30 30 30 30 30 30 32 32 31 30 29 29 28 29 33 35 36 37 38 36 30 30 34 38 41 41 39 39 43 46 48 49 51 51 47 43 41 40 40 41 42 44 46 47 49 50 50 51 52 52 52 51 51
57 57 54 50 46 42 41 39 39 38 39 40 40 40 40 41 44 45 45 44 40 38 39 40 39 39 37 36 37 36 34 32 31 31 31 31 31 30 31 31 29 29 30 30 29 30 33 34 35 36 37 35 30 33 37 40 43 41 38 41 44 47 49 51 52 50 44 42 42 41 41 42 44 44 45 46 48 49 50 51 52 52 51 51 51
57 56 52 48 46 44 42 41 40 40 41 43 45 45 46 48 48 46 44 41 38 38 40 40 39 38 38 36 36 36 35 33 32 32 32 32 32 31 31 31 30 31 32 33 32 33 35 36 36 35 35 34 33 36 40 43 45 40 39 43 46 49 51 52 52 48 44 43 44 43 44 46 46 46 46 46 46 48 49 50 50 51 51 51 52
55 54 51 48 46 45 44 42 42 43 46 48 50 50 50 50 47 43 41 39 39 40 41 40 39 38 38 37 36 36 35 33 33 33 33 34 34 33 32 31 31 33 34 34 34 36 37 38 38 36 35 36 36 39 42 45 43 39 43 47 49 51 52 53 52 48 45 45 45 45 47 48 48 46 46 46 47 48 48 49 50 51 52 52 53
54 53 51 49 48 47 46 45 46 49 51 52 52 51 50 48 44 41 40 40 41 43 42 40 38 37 37 37 36 35 34 34 35 35 34 34 35 34 33 34 35 35 34 35 36 37 37 38 39 38 38 39 40 41 43 44 42 42 48 51 52 54 53 54 52 48 46 45 45 47 48 48 48 47 46 46 48 49 50 51 52 53 54 55 56
55 54 53 51 50 50 50 51 53 54 53 53 52 51 50 47 44 42 40 41 43 44 43 40 37 37 37 37 36 35 34 35 35 35 35 35 36 35 36 37 37 37 36 37 38 39 39 40 40 41 42 42 41 42 43 43 43 47 52 54 55 55 55 55 52 49 47 47 47 47 48 47 48 48 48 48 49 50 51 52 53 55 56 57 58
59 57 56 56 55 54 56 56 56 55 54 53 51 50 49 47 44 42 41 42 44 44 42 39 37 37 36 37 37 36 35 35 36 35 35 36 36 37 38 39 39 39 38 38 40 41 42 42 42 42 42 40 39 41 42 43 46 51 54 57 57 56 56 56 53 51 50 48 47 47 46 46 47 48 48 48 48 49 50 51 53 54 55 56 57
62 60 59 60 59 59 59 58 57 55 54 52 51 50 48 46 43 42 43 43 43 42 40 38 37 37 37 37 37 36 36 36 36 36 35 36 37 38 39 39 39 39 38 39 41 42 43 43 42 42 40 38 38 41 43 46 50 53 56 58 57 57 57 56 54 53 52 50 48 47 47 47 48 47 47 47 46 47 48 49 50 52 53 54 55
65 63 61 61 60 60 60 59 57 55 54 52 51 50 47 44 42 41 42 41 41 41 39 38 37 37 37 37 36 36 37 37 37 36 35 36 37 37 38 38 38 36 37 39 40 40 41 42 41 40 39 38 40 43 46 50 53 55 56 57 57 58 57 56 56 54 52 50 49 48 49 49 48 47 46 46 46 47 47 48 50 51 53 54 55
65 63 62 62 61 60 60 58 56 55 54 53 51 48 43 41 39 38 39 38 39 40 39 38 37 37 37 37 36 36 37 38 37 36 36 36 36 36 37 37 36 35 37 39 40 40 42 41 40 40 40 41 43 46 49 52 55 56 56 56 57 57 56 55 55 54 52 51 50 50 50 50 49 48 48 48 47 48 48 50 51 53 55 57 59
63 62 61 61 60 59 57 56 56 56 55 53 49 44 40 39 38 37 37 38 39 40 39 39 38 38 37 37 37 37 38 37 37 37 37 37 37 37 37 36 35 35 36 38 39 41 41 40 39 41 43 44 47 49 52 55 57 57 56 56 57 57 56 55 53 52 51 50 50 50 50 50 50 50 50 50 50 50 50 52 53 55 58 61 63
62 62 61 60 59 57 56 56 57 57 55 51 46 43 41 41 41 39 38 38 40 41 40 39 39 39 38 37 37 37 38 37 37 37 36 37 37 37 37 37 36 35 35 37 39 40 39 38 40 43 44 46 49 51 54 57 57 56 57 58 58 57 56 54 52 51 50 49 49 49 49 49 50 51 52 52 52 52 53 55 57 59 62 64 65
61 61 60 60 59 58 58 58 58 57 55 51 47 46 45 45 43 40 39 40 40 41 40 39 39 39 38 38 38 38 38 37 37 36 35 36 37 37 37 37 36 35 36 37 37 39 40 41 42 45 47 49 52 54 56 56 56 56 58 58 58 57 56 54 52 52 50 50 49 49 49 49 51 51 52 53 54 55 57 59 61 63 65 66 66
62 62 62 62 61 61 60 58 56 55 53 50 48 47 46 45 43 40 40 40 41 41 40 40 40 39 38 38 38 38 39 39 38 36 36 36 38 39 39 39 39 39 40 39 38 40 44 46 47 48 50 52 54 56 56 55 56 57 58 59 59 58 56 54 53 52 51 50 50 49 49 50 51 52 54 56 57 59 61 63 65 67 68 67 67
65 65 65 64 63 60 58 55 54 53 51 49 48 47 46 45 42 41 41 40 40 41 41 41 40 39 38 38 38 39 39 40 39 38 38 38 39 41 43 43 43 44 45 44 44 45 47 48 49 50 51 52 54 55 55 56 57 58 59 60 60 58 55 53 53 52 52 52 50 50 51 52 52 54 56 58 60 62 64 66 67 68 67 66 66
68 68 66 63 60 57 54 53 52 52 51 50 48 47 46 44 43 42 42 40 40 41 42 41 40 39 38 38 38 39 40 40 41 41 40 41 42 43 45 46 47 48 49 49 49 49 50 50 49 50 52 53 54 55 55 57 58 60 61 62 60 57 55 53 53 53 53 52 51 51 52 53 54 56 58 60 62 64 66 67 67 67 65 64 63
69 66 62 58 55 54 53 52 52 52 52 50 49 47 46 44 43 43 42 41 41 42 42 41 40 40 39 39 39 40 40 41 42 43 42 42 44 45 46 47 49 50 51 51 51 51 51 51 51 52 53 55 55 56 57 58 60 61 62 61 59 56 55 54 54 54 53 52 51 52 53 54 56 58 60 62 64 66 67 66 65 64 63 62 62
66 63 59 55 54 53 53 52 53 53 52 50 48 47 45 43 43 42 41 41 41 42 42 42 41 40 40 40 40 41 41 42 43 44 44 44 45 46 47 48 49 50 49 50 50 51 51 52 53 54 55 56 56 57 58 59 60 61 61 60 57 56 55 54 54 54 52 51 52 53 54 56 58 60 63 64 65 66 65 63 62 61 61 61 62
62 60 59 56 54 54 54 53 53 54 52 49 47 46 44 43 42 42 41 41 41 41 42 42 42 41 41 41 41 41 42 43 44 44 44 44 44 45 46 46 47 48 48 49 50 51 53 54 55 56 57 58 59 59 60 60 60 60 59 57 56 55 54 54 54 53 51 51 53 54 56 58 60 62 64 65 64 63 61 60 60 60 61 61 60
60 58 57 55 54 54 54 53 53 52 50 47 46 45 43 42 42 42 42 41 40 41 42 42 42 42 41 41 42 42 42 42 42 42 42 41 42 43 44 45 47 48 49 50 52 54 56 58 59 59 60 61 61 60 60 59 58 58 56 55 54 54 54 54 53 51 50 52 54 55 57 60 62 63 63 62 60 58 58 58 59 60 60 60 59
58 56 55 53 54 55 53 51 51 50 47 46 46 44 43 42 43 43 42 41 40 40 41 42 42 42 42 43 43 43 43 42 41 41 42 42 43 44 46 47 49 51 52 54 56 57 58 60 61 61 61 61 60 59 58 57 56 55 54 53 53 53 53 53 51 50 51 52 54 56 58 61 62 62 60 58 56 56 57 58 59 59 59 58 58
60 57 54 53 54 54 51 50 50 48 46 45 45 44 43 43 43 43 42 40 39 40 41 42 42 42 43 44 44 45 45 45 45 45 46 46 47 48 50 51 52 54 56 57 58 59 60 61 61 61 60 59 58 57 55 54 53 53 53 53 53 53 52 51 50 51 52 53 54 57 59 61 61 59 56 54 55 56 57 58 58 58 58 58 57
61 57 54 53 55 53 50 49 49 48 46 45 45 45 44 43 43 42 41 41 40 40 42 43 43 43 44 45 45 46 46 47 48 49 49 49 50 51 52 54 55 57 58 59 59 59 59 59 59 59 58 57 56 54 52 52 52 52 52 52 52 52 51 50 50 51 52 54 56 59 60 59 57 54 52 52 54 56 57 57 57 58 58 57 57
62 57 54 54 55 54 51 50 50 48 47 46 46 46 45 44 43 42 42 41 41 42 43 44 44 44 45 45 46 47 47 48 49 50 51 51 52 53 54 55 56 57 59 59 58 58 57 57 57 56 55 54 53 52 51 51 51 51 51 51 50 50 49 49 50 52 53 55 58 59 59 56 52 50 50 51 54 55 56 57 57 58 58 58 59
61 56 54 54 55 55 54 52 51 49 49 48 47 46 46 46 45 45 44 43 43 44 44 44 44 45 46 47 47 48 48 49 50 51 52 53 54 55 55 55 55 57 59 58 56 55 55 55 54 53 52 51 50 50 51 51 51 51 50 49 48 48 49 49 51 52 55 57 59 59 57 52 48 47 49 51 53 55 56 57 57 58 59 60 62
Wind_Direction
267 271 274 277 281 283 286 291 292 295 297 296 298 300 301 302 305 308 310 313 317 316 315 317 323 327 327 326 326 329 334 337 336 333 332 334 337 337 334 331 333 336 336 336 340 347 352 353 353 353 353 351 347 342 336 331 326 323 321 317 313 309 305 301 298 294 291 288 286 283 280 276 272 269 267 266 265 265 264 264 264 264 264 264 264
267 271 273 277 279 280 285 288 290 295 299 297 298 299 300 302 304 306 308 309 314 316 312 311 319 328 327 325 325 327 331 334 334 332 331 332 335 335 333 329 331 333 334 336 342 351 354 353 353 354 356 356 355 352 348 341 335 331 328 324 319 314 310 305 301 297 293 290 288 285 282 279 276 274 272 271 270 270 269 269 269 270 270 270 270
267 271 274 276 277 279 282 284 288 293 297 299 299 299 301 304 305 305 306 306 310 313 311 306 310 324 327 324 325 326 329 331 331 330 329 331 333 334 332 328 327 329 331 334 337 346 350 349 350 352 353 356 358 358 354 348 343 339 335 330 324 318 313 308 304 300 297 293 291 289 286 284 282 280 279 277 276 274 274 273 274 274 275 276 275
267 271 273 275 276 279 279 282 288 289 294 298 298 300 303 306 307 305 304 305 307 310 310 304 302 315 325 324 325 326 327 329 329 328 328 329 331 332 332 327 322 324 327 329 323 330 342 344 346 348 351 354 357 359 357 353 348 344 340 335 329 322 316 310 307 303 300 296 293 291 290 289 288 286 284 281 278 277 276 276 277 278 279 280 280
268 270 272 274 276 278 278 281 285 287 293 295 296 300 304 307 306 304 304 305 306 309 309 305 299 305 319 323 324 325 326 327 328 326 326 328 330 330 331 326 317 316 321 321 311 313 330 339 340 342 347 351 354 357 357 354 350 346 343 339 334 327 321 315 311 308 303 299 296 294 293 293 291 288 284 281 279 278 278 278 277 277 281 287 291
269 269 271 273 276 278 277 278 280 286 292 293 296 299 302 304 302 302 305 306 307 309 310 307 301 299 309 318 321 324 325 326 326 325 325 326 328 328 329 325 312 309 315 315 306 303 318 330 334 336 340 346 350 353 354 353 350 346 342 340 337 332 328 322 318 313 307 304 301 299 298 295 292 288 284 282 280 279 278 275 268 265 276 290 298
266 267 269 271 272 276 276 276 282 289 292 293 297 298 298 298 298 300 302 305 308 309 309 307 304 299 302 311 317 321 324 325 325 323 323 325 326 326 327 324 309 302 308 310 304 302 312 322 327 330 333 339 344 347 350 350 349 346 342 338 336 335 333 330 324 317 310 307 305 303 300 296 293 290 288 285 281 278 273 261 247 248 263 283 294
264 266 267 267 268 273 276 280 286 290 291 296 300 298 296 295 296 298 300 303 307 308 308 307 305 301 300 306 312 316 321 323 323 322 321 323 324 324 325 323 308 295 300 305 304 304 311 318 321 323 325 330 336 341 343 345 345 344 341 337 334 334 336 336 329 320 314 310 307 304 302 299 296 294 292 287 281 274 262 245 240 247 258 276 286
265 267 267 265 266 273 280 282 286 288 289 296 298 294 293 294 296 297 299 302 305 307 308 308 306 303 302 306 309 312 318 321 321 320 319 320 322 322 322 322 308 291 292 298 302 304 309 315 317 317 316 320 326 332 336 338 339 339 337 336 335 333 333 334 330 321 317 313 309 306 304 302 300 297 293 285 275 264 250 242 244 250 258 270 277
264 265 266 265 266 275 282 282 284 286 288 292 289 286 290 294 298 298 299 301 304 305 306 306 305 304 304 307 308 310 316 319 319 318 317 318 320 319 319 320 308 290 285 291 296 301 307 312 314 313 310 311 316 323 328 331 332 331 330 331 333 333 330 328 324 319 317 314 308 306 304 301 299 297 292 281 269 256 248 246 248 252 259 267 274
262 261 265 267 270 275 280 280 282 284 285 285 282 283 288 293 297 299 300 301 302 302 303 304 304 305 306 308 309 310 315 317 317 316 315 316 318 317 317 317 309 292 282 284 290 295 302 307 309 308 306 305 309 315 321 325 325 325 324 325 327 328 326 323 319 315 314 313 309 306 302 298 295 293 288 278 266 256 253 253 253 256 262 267 274
261 261 265 269 272 274 276 278 280 282 284 283 280 282 286 291 295 297 299 300 301 300 300 301 303 304 306 308 308 310 315 315 314 314 313 314 315 316 316 315 309 296 283 280 286 291 297 302 304 303 303 304 307 312 319 322 322 321 321 322 322 320 318 318 316 313 310 309 308 306 302 297 293 289 285 277 269 263 260 260 262 264 267 271 275
263 264 266 269 272 273 274 276 278 280 282 280 279 282 286 290 293 294 297 299 300 299 298 298 300 303 304 307 308 310 313 313 312 312 311 311 313 314 314 313 309 299 287 280 283 288 293 298 299 298 300 303 307 311 316 319 318 318 318 320 319 315 312 311 310 310 308 306 305 304 301 297 293 288 284 279 274 270 269 269 269 271 272 275 277
267 267 267 268 270 273 274 275 277 279 280 279 279 283 285 288 291 292 294 298 300 298 297 297 299 301 303 306 308 309 312 312 310 309 308 309 311 313 314 312 308 301 290 283 283 286 290 294 294 294 297 300 304 308 312 314 314 314 315 317 315 312 311 308 305 305 304 303 302 300 298 296 293 289 284 281 278 276 274 274 274 274 275 276 277
269 268 267 268 269 271 273 274 276 278 278 279 280 282 283 286 289 291 293 297 299 298 297 297 299 300 303 306 307 309 311 310 308 306 306 307 309 312 313 312 308 301 292 286 285 287 289 291 290 290 293 295 298 304 310 311 310 311 312 312 310 310 310 308 306 305 302 299 298 296 294 293 291 288 285 282 280 278 277 276 276 276 276 276 275
265 265 266 267 269 270 271 273 275 277 277 277 280 280 281 285 288 290 292 297 299 299 298 298 299 301 304 306 307 309 309 308 305 304 303 305 308 311 313 312 307 301 294 288 287 289 291 290 289 289 290 290 291 296 305 309 309 310 311 309 307 308 307 306 306 306 304 300 295 292 290 289 289 287 285 283 280 279 277 277 276 276 276 275 275
262 263 265 268 270 270 271 272 274 275 277 277 279 279 281 285 287 289 291 297 300 300 299 299 299 301 305 307 308 308 307 305 303 301 301 303 307 311 312 311 305 300 295 290 288 289 291 291 291 290 288 287 288 291 297 304 307 309 311 310 309 307 304 304 305 305 304 301 297 292 288 286 285 284 283 282 281 280 279 278 277 276 276 275 275
260 263 266 269 270 271 272 273 274 275 277 278 280 281 282 284 286 288 291 296 299 300 300 299 300 303 306 307 307 307 305 303 300 300 300 302 305 309 310 308 303 300 296 292 289 288 290 291 291 289 288 286 287 289 293 299 304 308 311 310 309 308 305 305 305 304 302 300 297 293 290 287 283 281 280 280 280 280 280 279 279 279 279 278 277
259 263 266 267 267 270 274 274 275 277 278 280 281 282 283 283 284 287 291 294 297 299 299 299 301 303 305 306 306 306 303 300 299 299 299 300 303 306 307 305 302 299 297 294 291 290 290 291 290 287 287 287 287 289 294 298 302 307 311 311 311 311 310 311 310 307 304 300 297 293 291 289 286 281 278 277 277 277 278 278 279 280 281 281 281
258 260 263 264 265 268 272 273 276 277 279 280 281 283 283 283 283 286 289 292 294 297 297 298 301 303 304 305 305 304 301 299 298 298 298 299 300 302 304 303 301 299 299 297 296 295 294 292 289 287 287 288 290 293 297 299 302 307 310 311 314 315 315 316 315 313 309 305 301 296 293 292 289 285 281 279 278 276 276 276 276 277 278 278 279
256 257 260 262 264 267 270 273 277 278 278 279 280 281 282 282 281 284 289 291 293 295 297 298 300 302 303 304 304 303 300 298 297 297 297 297 298 299 302 302 300 298 298 298 298 299 298 295 290 289 290 291 293 296 298 300 303 307 309 312 316 317 318 319 317 316 313 310 304 299 295 294 292 290 287 284 281 278 277 276 275 275 275 276 276
255 256 259 262 264 268 272 275 278 278 277 278 279 279 279 279 279 284 289 293 296 296 297 298 300 301 302 302 302 301 299 297 296 296 296 296 296 298 301 302 300 298 298 299 300 299 298 296 293 292 291 292 294 297 300 302 305 307 309 315 317 319 321 321 319 317 315 312 308 302 296 293 292 291 289 287 284 281 279 278 277 276 276 277 277
255 257 260 263 266 270 275 277 277 276 276 277 277 276 276 276 278 283 287 295 301 299 298 298 299 300 301 301 300 299 298 296 295 295 295 295 296 297 300 301 299 298 298 299 301 300 297 295 294 293 292 292 293 298 302 304 307 310 313 316 318 321 323 323 321 318 316 313 310 306 299 293 290 289 289 288 286 284 282 281 280 279 280 280 281
253 256 259 263 267 272 275 276 275 274 274 274 274 275 276 276 279 282 283 294 303 302 298 297 298 299 299 299 298 297 296 295 294 293 294 294 295 296 298 298 296 296 296 297 299 299 296 294 294 294 292 291 293 298 302 305 310 314 316 317 319 322 323 323 321 319 316 313 310 308 303 297 292 290 289 288 287 285 284 283 283 283 283 284 285
253 256 259 263 268 272 273 272 271 272 270 270 272 274 278 279 281 284 286 296 303 301 297 296 297 298 298 297 295 294 294 293 292 292 292 292 293 294 295 294 293 293 293 295 297 296 294 294 295 294 293 292 294 298 301 307 314 317 318 317 320 323 323 322 320 319 317 314 311 310 307 303 297 294 291 290 289 288 287 286 286 286 286 287 287
254 257 260 264 268 270 269 268 269 271 271 272 272 273 278 282 286 290 293 299 302 298 295 295 296 297 297 295 293 292 292 291 291 291 291 291 292 293 293 292 291 290 291 295 296 295 294 294 294 293 293 294 295 298 304 311 315 316 317 317 320 322 321 321 321 320 317 313 313 313 312 309 304 300 296 294 293 292 291 290 290 289 289 289 290
255 258 261 263 265 266 265 267 270 273 275 277 277 276 281 287 291 294 294 298 299 295 293 294 295 297 296 292 291 291 291 290 290 290 290 290 290 290 290 290 289 289 293 297 299 298 296 294 292 292 293 293 294 301 306 311 314 315 317 318 320 320 320 321 321 320 316 312 313 315 315 314 311 306 301 298 295 294 293 292 292 291 291 291 291
255 258 261 262 263 264 265 267 271 275 278 280 280 281 285 290 293 293 293 295 295 292 291 293 295 297 294 290 289 289 290 290 289 289 289 289 289 288 287 286 286 289 293 296 297 296 293 290 289 291 294 292 291 301 307 310 314 314 316 317 318 318 319 321 321 318 313 308 309 311 314 315 314 310 306 302 298 296 295 294 293 293 292 291 291
254 257 259 261 262 263 266 268 271 275 277 278 280 283 286 290 292 291 291 292 291 291 291 292 295 295 292 289 288 288 288 289 289 288 288 288 288 287 286 283 284 288 291 293 292 289 287 287 288 290 293 292 290 298 305 309 312 311 313 315 316 317 318 320 319 316 311 307 307 309 312 313 312 310 306 304 302 299 298 296 295 294 294 293 292
253 256 258 260 262 263 266 268 269 273 275 277 280 282 285 288 290 291 290 288 288 290 291 292 294 292 289 288 287 287 288 288 288 287 288 289 289 289 288 286 286 289 290 291 290 287 285 285 287 287 289 291 290 294 301 306 308 307 310 313 315 316 317 319 318 314 310 308 307 308 310 311 310 308 305 304 303 302 300 299 297 296 296 295 294
253 256 258 260 261 262 263 263 266 272 276 279 280 281 283 285 289 290 288 286 287 289 290 291 291 288 286 286 285 286 286 287 286 287 288 289 290 289 289 288 288 288 288 288 289 287 285 284 284 283 285 289 290 292 298 302 303 306 310 313 314 315 316 318 316 312 309 307 305 306 308 310 310 309 306 304 303 302 301 300 299 298 297 296 295
250 253 255 256 257 258 259 260 265 273 277 279 280 280 281 284 288 289 286 285 286 287 289 289 287 284 283 283 283 284 284 285 285 286 288 288 289 288 287 287 286 287 285 285 286 286 287 285 282 283 287 289 289 291 296 298 302 308 312 314 314 314 316 317 314 310 308 305 303 304 306 309 311 310 308 305 302 301 300 300 299 299 298 297 297
246 249 251 253 254 256 258 262 267 273 276 278 278 279 280 283 285 286 285 285 285 286 287 286 283 281 281 281 282 283 283 284 285 286 287 287 288 287 285 284 284 286 285 284 284 285 287 286 284 287 292 291 289 291 293 297 304 310 312 313 313 314 315 314 312 310 308 306 305 306 308 310 311 311 309 307 304 303 302 302 302 301 300 300 300
246 247 250 251 253 256 259 263 267 271 274 276 277 279 281 281 282 283 284 284 284 284 284 282 281 280 280 280 281 282 284 285 286 286 288 289 289 288 286 285 285 285 285 285 285 286 286 286 288 292 293 291 290 290 291 297 306 309 311 312 312 313 314 313 311 310 310 309 309 309 310 311 311 310 310 310 308 307 307 306 305 304 303 303 301
247 249 250 252 253 256 259 263 267 270 273 275 278 279 279 279 279 281 282 283 283 282 282 281 280 280 280 280 280 282 283 285 286 287 288 289 289 289 287 286 285 284 285 286 286 287 286 287 293 295 294 290 288 287 289 297 304 306 308 309 310 312 312 311 311 310 310 311 311 311 311 312 312 311 311 311 310 310 310 309 308 306 304 303 301
248 249 251 252 254 256 260 263 267 270 272 276 277 277 276 276 278 280 280 281 280 279 280 281 280 279 279 280 280 281 283 285 286 287 288 287 286 287 288 285 283 283 284 285 286 287 288 292 295 295 291 288 286 286 289 296 300 302 303 305 309 311 311 310 310 310 311 311 311 311 312 313 314 313 312 312 311 310 310 309 308 307 305 304 303
248 249 251 253 255 257 260 263 266 268 272 274 273 271 271 274 278 280 279 278 277 277 279 280 279 278 278 278 279 280 282 284 286 288 288 285 283 284 287 285 282 283 284 285 288 291 293 294 294 290 288 286 285 287 291 296 298 300 302 305 309 310 309 308 308 309 310 311 311 311 313 313 314 314 313 312 311 310 310 309 307 307 307 307 306
247 249 250 252 255 257 260 263 265 267 270 270 267 267 268 273 278 279 277 276 275 276 278 278 277 277 277 277 278 279 281 283 285 287 287 283 280 282 285 284 282 283 284 287 291 292 292 291 288 285 284 285 286 288 292 296 298 301 304 308 310 309 308 307 307 308 309 310 310 310 310 311 312 313 313 312 311 310 309 308 308 309 310 309 308
247 248 250 252 255 258 261 263 264 266 267 264 263 265 269 273 276 276 275 275 275 276 276 276 276 276 276 277 278 279 281 283 284 285 285 281 276 277 282 283 282 281 284 288 290 289 288 286 284 284 284 286 287 290 293 297 299 303 306 309 310 309 308 307 307 308 309 309 308 308 308 309 311 311 311 311 311 310 310 311 311 312 312 311 310
250 251 253 255 258 260 261 262 263 263 262 262 263 266 269 272 274 274 274 274 274 274 275 275 274 275 276 277 278 280 282 283 284 284 282 279 274 274 279 282 282 283 285 287 287 287 287 286 285 286 287 288 288 291 296 299 302 304 307 309 309 308 307 306 307 308 308 307 306 307 308 310 311 311 311 311 312 312 313 313 313 313 313 313 312
251 253 255 258 259 260 261 260 259 259 260 262 264 267 269 271 272 272 272 273 273 273 273 274 273 274 275 276 278 280 282 283 284 284 282 278 275 274 278 281 283 285 285 286 287 288 288 288 288 289 290 291 291 294 298 301 303 305 307 308 308 307 307 306 306 306 306 305 306 308 310 311 311 310 311 312 313 313 314 314 314 315 314 314 314
250 252 255 257 258 258 257 256 257 258 261 263 265 267 269 270 271 270 271 272 272 272 272 273 273 274 274 276 277 279 281 282 283 284 282 280 278 277 278 281 283 284 286 288 289 289 289 290 291 292 293 294 295 297 300 301 303 304 306 307 307 306 306 305 304 305 305 306 307 310 311 311 310 311 312 313 313 314 314 315 315 315 316 315 315
248 250 251 253 255 255 255 256 258 260 262 264 265 267 269 269 269 269 270 271 270 271 271 272 273 273 275 276 278 279 280 282 282 283 282 281 280 280 280 282 283 285 287 289 290 290 290 292 293 294 295 295 297 299 301 303 304 304 305 305 305 305 304 304 304 305 306 308 310 311 311 310 311 312 313 314 314 314 315 316 316 316 316 316 315
245 246 248 250 252 254 255 257 259 261 262 264 265 266 267 267 267 267 269 270 270 269 270 271 273 274 275 277 278 279 280 281 281 281 281 281 280 280 280 282 283 285 286 288 290 291 291 293 294 295 296 297 298 300 302 303 303 303 303 303 303 304 304 304 305 306 307 310 311 311 311 311 312 314 314 315 315 315 315 316 317 316 316 316 316
245 246 247 248 251 254 256 258 259 261 262 263 264 265 265 264 264 266 269 270 268 268 269 271 272 274 276 277 278 279 280 282 282 281 281 281 281 281 281 281 282 283 284 287 290 291 292 293 294 296 297 298 300 301 301 301 301 301 301 302 303 304 304 304 304 306 309 310 310 310 311 312 314 315 315 315 315 315 316 317 317 317 317 318 318
246 247 248 249 251 253 255 257 258 260 262 262 263 263 262 262 263 266 267 267 266 267 268 270 272 274 276 277 278 279 280 282 282 282 282 282 282 283 283 282 282 283 285 288 290 292 293 295 295 296 297 299 300 300 300 300 300 300 301 302 303 303 303 303 304 307 309 309 309 310 313 314 315 316 315 315 315 316 317 317 318 319 320 320 320
245 247 248 250 251 252 253 255 257 259 260 260 261 261 261 261 263 265 264 264 265 267 268 269 271 274 275 276 277 277 279 280 280 280 282 282 283 283 283 283 284 285 287 289 291 292 294 295 296 297 297 299 299 300 300 300 300 300 301 302 302 302 302 302 304 307 308 308 309 312 314 315 315 315 315 315 316 316 317 318 320 321 322 322 321
245 246 248 250 252 253 253 254 255 256 257 258 259 261 261 261 262 262 261 263 266 267 268 270 271 273 275 276 276 277 277 278 278 280 281 282 283 283 284 285 286 288 289 290 292 293 294 295 296 297 298 299 299 299 299 299 299 300 300 301 301 301 301 303 306 307 307 307 310 312 314 315 315 315 315 316 317 317 319 320 321 322 322 323 323
245 245 247 250 252 253 253 252 253 254 255 256 258 260 260 260 260 259 260 264 267 268 269 270 272 273 274 275 276 277 277 278 278 280 282 283 283 284 285 287 288 289 290 291 292 293 294 295 296 297 298 299 299 299 298 298 299 300 300 300 300 301 303 305 306 306 306 309 311 313 315 315 314 314 316 318 318 319 320 321 321 322 323 324 324
245 245 246 248 250 251 251 251 253 254 255 256 257 258 258 258 258 258 261 266 268 269 270 271 272 273 274 275 275 276 277 278 279 280 281 283 283 284 286 287 289 290 290 290 291 293 294 295 296 297 298 298 298 298 298 298 299 299 299 300 301 303 304 305 306 305 307 310 313 314 314 313 312 313 316 319 320 320 321 322 322 323 325 326 328
245 245 244 245 247 250 251 251 252 253 254 256 256 256 257 257 257 258 263 267 269 269 270 271 272 274 275 275 276 276 277 278 279 280 281 282 284 285 286 288 290 290 290 290 292 293 294 296 296 297 297 297 297 297 297 298 298 298 299 300 301 303 304 304 304 305 309 311 312 313 312 311 311 312 316 319 320 322 323 323 324 326 328 330 331
Height
10900 10900 10899 10900 10900 10900 10900 10900 10900 10900 10900 10900 10900 10900 10900 10900 10900 10900 10899 10899 10897 10896 10895 10894 10892 10891 10889 10888 10886 10885 10883 10881 10880 10878 10877 10874 10871 10870 10868 10866 10865 10864 10864 10863 10861 10860 10858 10856 10855 10853 10851 10850 10848 10847 10846 10845 10844 10843 10843 10842 10841 10840 10838 10837 10836 10835 10834 10833 10833 10832 10832 10831 10830 10829 10829 10828 10828 10828 10827 10827 10826 10826 10826 10826 10826
10898 10897 10897 10897 10898 10898 10898 10898 10898 10898 10898 10898 10898 10898 10898 10898 10898 10898 10898 10897 10896 10895 10894 10892 10891 10889 10888 10886 10884 10883 10882 10880 10878 10877 10875 10873 10871 10869 10867 10865 10864 10863 10863 10862 10861 10859 10857 10856 10854 10852 10851 10849 10848 10846 10845 10844 10843 10842 10841 10840 10839 10838 10837 10835 10834 10833 10832 10831 10831 10830 10830 10829 10828 10827 10827 10826 10826 10826 10825 10825 10825 10825 10825 10824 10824
10895 10895 10895 10895 10896 10896 10897 10896 10896 10896 10896 10896 10896 10896 10896 10896 10896 10896 10895 10895 10895 10894 10893 10891 10890 10888 10886 10884 10883 10881 10880 10878 10876 10875 10874 10872 10870 10868 10866 10865 10863 10862 10862 10861 10860 10858 10857 10855 10854 10852 10850 10849 10847 10846 10844 10843 10842 10841 10840 10839 10838 10836 10835 10833 10832 10831 10830 10829 10829 10828 10828 10827 10826 10826 10825 10825 10824 10824 10823 10823 10823 10823 10823 10823 10822
10893 10893 10893 10893 10894 10894 10895 10894 10894 10894 10894 10894 10894 10894 10894 10894 10894 10894 10894 10893 10893 10892 10892 10890 10888 10886 10885 10883 10881 10880 10878 10877 10875 10873 10872 10871 10869 10867 10866 10864 10862 10862 10861 10860 10859 10857 10856 10855 10853 10852 10850 10849 10847 10845 10844 10843 10842 10840 10839 10838 10836 10835 10833 10832 10831 10829 10828 10827 10826 10826 10825 10825 10824 10824 10823 10823 10822 10821 10821 10821 10821 10821 10821 10821 10820
10891 10891 10891 10891 10892 10892 10893 10893 10892 10892 10892 10892 10892 10892 10892 10892 10892 10892 10892 10891 10891 10890 10890 10889 10887 10885 10883 10881 10880 10878 10877 10875 10873 10871 10870 10869 10867 10866 10864 10863 10862 10861 10861 10860 10858 10857 10855 10854 10853 10852 10850 10849 10847 10845 10844 10842 10841 10839 10838 10836 10835 10833 10832 10830 10829 10828 10827 10825 10825 10824 10823 10823 10822 10822 10821 10820 10820 10819 10819 10819 10819 10819 10819 10819 10819
10889 10889 10890 10890 10890 10890 10891 10890 10890 10891 10891 10890 10890 10890 10890 10889 10890 10890 10890 10889 10889 10888 10888 10887 10885 10884 10882 10880 10879 10877 10875 10874 10872 10870 10868 10867 10866 10864 10863 10862 10861 10860 10860 10859 10858 10856 10855 10854 10853 10852 10850 10849 10847 10845 10843 10842 10840 10838 10836 10835 10833 10832 10831 10829 10828 10827 10826 10824 10823 10822 10822 10821 10820 10820 10819 10819 10818 10818 10818 10818 10818 10818 10818 10817 10817
10886 10887 10888 10888 10888 10888 10888 10888 10888 10889 10889 10889 10889 10888 10888 10887 10887 10887 10887 10887 10887 10887 10886 10884 10883 10882 10880 10878 10877 10876 10874 10872 10870 10868 10867 10865 10864 10863 10862 10860 10859 10859 10858 10858 10857 10855 10854 10853 10852 10851 10850 10848 10847 10845 10843 10841 10839 10837 10836 10834 10832 10831 10830 10828 10827 10826 10825 10824 10822 10821 10821 10820 10819 10818 10818 10817 10817 10816 10816 10816 10816 10816 10816 10815 10815
10884 10885 10886 10886 10886 10886 10886 10886 10887 10887 10887 10887 10887 10886 10886 10886 10885 10885 10885 10885 10885 10885 10883 10882 10881 10880 10879 10877 10875 10874 10872 10871 10869 10867 10865 10864 10862 10861 10860 10859 10858 10857 10857 10856 10855 10854 10853 10852 10851 10850 10849 10848 10846 10844 10842 10840 10838 10836 10835 10833 10831 10830 10829 10828 10826 10824 10824 10823 10822 10821 10820 10819 10818 10817 10816 10816 10815 10815 10814 10814 10814 10814 10813 10813 10812
10882 10883 10884 10884 10884 10885 10885 10885 10885 10885 10886 10886 10885 10885 10884 10884 10883 10883 10883 10883 10883 10883 10881 10880 10879 10878 10877 10875 10873 10872 10871 10869 10867 10865 10864 10862 10861 10859 10858 10857 10856 10855 10855 10855 10854 10853 10852 10851 10850 10849 10848 10847 10845 10843 10842 10839 10837 10835 10833 10832 10831 10830 10829 10828 10826 10823 10823 10822 10821 10820 10819 10818 10817 10816 10815 10815 10814 10813 10813 10813 10812 10812 10811 10810 10810
10879 10881 10881 10882 10882 10882 10883 10883 10883 10883 10884 10884 10884 10883 10883 10882 10881 10880 10880 10881 10881 10881 10879 10878 10876 10876 10875 10873 10872 10870 10869 10867 10865 10864 10862 10861 10859 10858 10857 10856 10855 10854 10853 10853 10852 10852 10851 10850 10849 10847 10846 10845 10844 10842 10841 10839 10837 10834 10832 10831 10830 10829 10828 10827 10826 10823 10822 10821 10820 10819 10818 10817 10816 10815 10815 10814 10813 10812 10811 10811 10810 10809 10808 10808 10807
10876 10879 10879 10879 10880 10880 10880 10880 10880 10881 10881 10882 10882 10881 10881 10880 10879 10878 10878 10879 10879 10878 10877 10876 10874 10874 10873 10872 10870 10868 10866 10865 10864 10862 10861 10859 10858 10857 10855 10854 10853 10852 10852 10851 10851 10850 10849 10848 10847 10846 10845 10844 10843 10841 10840 10838 10836 10833 10831 10831 10830 10828 10827 10826 10824 10823 10822 10820 10819 10818 10817 10816 10815 10814 10814 10813 10812 10811 10810 10809 10808 10807 10806 10805 10805
10874 10876 10876 10876 10877 10878 10878 10878 10878 10878 10879 10879 10879 10879 10879 10879 10878 10877 10876 10876 10876 10876 10875 10874 10873 10871 10871 10870 10868 10866 10864 10863 10862 10860 10859 10857 10856 10855 10854 10852 10851 10850 10850 10850 10849 10849 10848 10847 10846 10845 10843 10842 10841 10840 10838 10836 10834 10832 10831 10830 10829 10827 10825 10824 10823 10821 10821 10820 10818 10817 10816 10814 10813 10812 10812 10811 10810 10809 10808 10807 10806 10805 10804 10803 10802
10871 10873 10874 10874 10874 10875 10875 10875 10875 10876 10876 10877 10877 10877 10877 10877 10876 10875 10874 10874 10874 10873 10873 10872 10871 10870 10869 10868 10867 10865 10862 10861 10860 10858 10857 10855 10854 10853 10852 10851 10850 10849 10849 10848 10848 10847 10846 10845 10844 10843 10842 10841 10840 10838 10837 10835 10833 10831 10830 10829 10827 10826 10825 10823 10821 10820 10818 10818 10817 10816 10814 10813 10811 10810 10809 10808 10808 10807 10806 10805 10803 10802 10801 10800 10799
10868 10870 10871 10871 10872 10872 10872 10873 10873 10873 10874 10875 10875 10875 10875 10875 10874 10873 10872 10872 10871 10871 10870 10869 10869 10868 10866 10865 10865 10863 10861 10859 10858 10856 10855 10854 10852 10851 10850 10849 10848 10848 10847 10847 10846 10845 10844 10843 10842 10841 10840 10839 10838 10837 10835 10834 10832 10830 10829 10827 10825 10824 10823 10821 10820 10819 10817 10815 10814 10814 10812 10811 10809 10808 10807 10806 10805 10804 10803 10801 10800 10799 10798 10796 10795
10864 10867 10868 10868 10869 10869 10869 10870 10870 10870 10871 10872 10873 10873 10873 10873 10872 10872 10870 10870 10869 10868 10868 10867 10867 10866 10865 10863 10862 10861 10859 10857 10855 10854 10853 10852 10851 10850 10849 10848 10847 10846 10845 10845 10844 10843 10842 10841 10840 10839 10838 10837 10836 10835 10834 10832 10830 10829 10828 10826 10823 10822 10821 10819 10818 10817 10816 10814 10812 10811 10810 10809 10807 10806 10804 10803 10802 10801 10799 10798 10797 10795 10794 10793 10792
10861 10863 10865 10865 10866 10866 10867 10867 10868 10868 10868 10869 10870 10870 10870 10870 10870 10869 10869 10868 10867 10866 10865 10865 10864 10864 10862 10861 10860 10858 10857 10855 10853 10852 10851 10850 10849 10848 10847 10847 10846 10845 10844 10843 10842 10841 10840 10839 10838 10837 10836 10835 10834 10833 10832 10830 10828 10827 10826 10824 10821 10820 10818 10817 10816 10814 10813 10812 10810 10809 10808 10806 10805 10803 10802 10800 10799 10798 10796 10795 10793 10792 10791 10789 10788
10857 10860 10862 10863 10863 10863 10864 10864 10865 10865 10865 10866 10867 10867 10867 10867 10867 10867 10867 10866 10865 10864 10863 10862 10862 10861 10860 10859 10857 10856 10854 10853 10851 10850 10849 10848 10848 10847 10846 10845 10844 10843 10842 10841 10840 10839 10838 10837 10836 10835 10834 10833 10831 10831 10830 10828 10826 10824 10824 10822 10821 10819 10816 10815 10814 10812 10810 10809 10807 10806 10805 10803 10802 10800 10798 10797 10796 10794 10793 10791 10790 10788 10787 10786 10784
10855 10857 10858 10860 10861 10861 10861 10861 10862 10862 10862 10863 10863 10864 10864 10865 10865 10865 10864 10864 10863 10862 10861 10860 10859 10858 10857 10856 10855 10853 10851 10850 10849 10848 10847 10847 10846 10845 10844 10843 10843 10842 10841 10840 10838 10837 10836 10835 10834 10833 10831 10830 10829 10828 10827 10826 10824 10822 10821 10821 10819 10816 10813 10812 10811 10809 10807 10806 10804 10803 10801 10800 10798 10797 10795 10794 10792 10791 10789 10787 10786 10784 10783 10782 10780
10852 10853 10855 10857 10858 10858 10857 10858 10859 10859 10860 10860 10860 10861 10861 10862 10862 10862 10862 10862 10861 10860 10858 10857 10856 10855 10855 10853 10852 10850 10849 10848 10847 10847 10846 10845 10845 10844 10843 10842 10841 10840 10839 10837 10836 10835 10834 10833 10832 10830 10828 10827 10826 10825 10824 10823 10821 10819 10819 10818 10817 10814 10811 10810 10809 10807 10805 10803 10801 10799 10798 10796 10795 10793 10792 10790 10789 10787 10785 10783 10781 10780 10778 10777 10775
10849 10850 10852 10854 10855 10855 10854 10855 10856 10856 10857 10857 10857 10858 10859 10860 10860 10860 10860 10860 10859 10858 10856 10855 10853 10852 10851 10850 10849 10848 10847 10846 10845 10845 10844 10844 10843 10842 10841 10840 10839 10838 10836 10835 10834 10833 10832 10831 10829 10827 10826 10825 10824 10822 10822 10821 10819 10817 10816 10815 10814 10812 10809 10807 10806 10804 10802 10800 10798 10796 10794 10793 10791 10789 10788 10786 10785 10783 10781 10779 10777 10775 10773 10772 10771
10845 10846 10848 10850 10851 10852 10851 10852 10853 10853 10854 10854 10854 10855 10856 10857 10858 10858 10858 10858 10857 10855 10853 10852 10850 10849 10848 10846 10845 10845 10844 10843 10843 10843 10842 10842 10841 10840 10839 10838 10837 10835 10834 10833 10831 10830 10829 10828 10826 10825 10823 10822 10821 10820 10819 10818 10816 10814 10813 10813 10811 10809 10807 10805 10802 10800 10798 10797 10795 10793 10791 10789 10787 10786 10784 10782 10780 10778 10776 10774 10772 10770 10768 10767 10765
10841 10843 10845 10846 10848 10848 10848 10849 10850 10850 10851 10851 10852 10852 10853 10854 10855 10856 10856 10856 10855 10853 10851 10849 10847 10846 10844 10842 10842 10842 10842 10841 10841 10840 10840 10839 10838 10837 10837 10836 10834 10833 10831 10830 10829 10828 10827 10826 10824 10822 10821 10820 10819 10818 10817 10815 10813 10811 10810 10809 10807 10805 10804 10802 10799 10797 10795 10793 10791 10790 10787 10786 10784 10781 10779 10777 10775 10773 10771 10769 10767 10765 10764 10761 10760
10836 10839 10841 10842 10844 10845 10845 10845 10846 10847 10848 10848 10849 10850 10850 10852 10853 10854 10854 10853 10852 10850 10848 10846 10844 10842 10840 10839 10839 10839 10839 10839 10838 10837 10837 10836 10836 10835 10834 10833 10832 10831 10829 10828 10827 10826 10825 10823 10821 10820 10818 10817 10816 10816 10814 10812 10810 10808 10807 10805 10802 10800 10799 10797 10795 10793 10791 10789 10787 10785 10783 10781 10779 10776 10774 10772 10770 10768 10766 10764 10762 10760 10758 10756 10755
10832 10836 10838 10839 10840 10841 10842 10842 10843 10844 10845 10845 10846 10847 10848 10849 10851 10851 10851 10850 10849 10847 10845 10842 10840 10839 10837 10836 10836 10836 10836 10836 10835 10834 10834 10833 10833 10832 10831 10830 10829 10828 10826 10825 10824 10824 10822 10820 10819 10817 10815 10814 10814 10813 10811 10809 10807 10805 10804 10801 10798 10796 10794 10793 10791 10788 10786 10783 10781 10779 10777 10775 10773 10771 10769 10767 10764 10762 10760 10758 10756 10754 10753 10751 10749
10828 10832 10835 10836 10838 10838 10838 10839 10840 10840 10841 10842 10843 10844 10845 10847 10848 10849 10848 10847 10846 10844 10841 10838 10837 10836 10835 10833 10832 10833 10833 10832 10832 10831 10831 10830 10830 10829 10828 10827 10826 10825 10824 10823 10822 10821 10819 10817 10816 10814 10812 10811 10811 10810 10809 10806 10804 10802 10800 10798 10795 10793 10791 10789 10786 10784 10781 10778 10775 10773 10771 10769 10767 10765 10763 10761 10759 10757 10754 10752 10750 10749 10747 10746 10744
10824 10828 10832 10834 10835 10836 10835 10836 10837 10837 10838 10839 10839 10841 10842 10844 10845 10845 10844 10843 10842 10840 10837 10835 10833 10833 10833 10830 10829 10829 10829 10829 10829 10829 10828 10828 10827 10826 10825 10824 10823 10822 10821 10820 10820 10819 10817 10815 10813 10811 10809 10808 10808 10807 10806 10803 10800 10798 10797 10795 10792 10789 10787 10785 10783 10780 10777 10773 10771 10768 10766 10764 10762 10760 10757 10755 10753 10751 10749 10747 10745 10743 10742 10740 10738
10820 10823 10827 10830 10832 10833 10832 10833 10833 10833 10834 10835 10836 10837 10838 10840 10841 10842 10841 10840 10839 10836 10833 10831 10831 10831 10830 10828 10826 10826 10826 10826 10826 10825 10825 10825 10824 10824 10822 10821 10821 10820 10819 10818 10818 10816 10814 10812 10810 10808 10806 10805 10805 10804 10802 10799 10796 10794 10793 10791 10789 10786 10784 10782 10779 10776 10773 10770 10767 10765 10762 10760 10757 10755 10752 10750 10748 10746 10744 10741 10739 10737 10736 10734 10731
10816 10818 10823 10826 10828 10829 10829 10830 10829 10829 10830 10831 10832 10833 10834 10836 10837 10838 10837 10836 10835 10832 10830 10828 10828 10828 10827 10826 10824 10823 10823 10823 10823 10822 10822 10822 10821 10821 10820 10819 10818 10817 10816 10815 10815 10813 10811 10809 10807 10805 10803 10802 10802 10801 10799 10796 10793 10790 10789 10788 10786 10783 10780 10778 10775 10772 10770 10768 10764 10761 10758 10756 10753 10750 10748 10745 10743 10741 10738 10736 10734 10732 10730 10729 10726
10813 10814 10819 10822 10823 10825 10825 10826 10826 10826 10826 10827 10828 10830 10831 10832 10834 10834 10834 10833 10831 10829 10826 10826 10827 10826 10823 10823 10822 10820 10820 10820 10820 10819 10818 10818 10818 10818 10817 10816 10816 10814 10813 10813 10812 10810 10808 10806 10805 10803 10800 10799 10799 10798 10796 10793 10789 10787 10785 10785 10783 10780 10777 10775 10772 10769 10767 10764 10760 10757 10755 10752 10749 10746 10743 10741 10738 10735 10733 10731 10729 10726 10724 10722 10720
10810 10811 10815 10817 10819 10820 10821 10823 10823 10823 10823 10824 10825 10826 10827 10828 10830 10831 10830 10829 10827 10825 10823 10824 10824 10822 10820 10820 10819 10817 10817 10817 10816 10815 10815 10815 10814 10814 10813 10813 10812 10811 10810 10809 10808 10807 10805 10804 10802 10800 10798 10796 10795 10794 10793 10790 10786 10783 10782 10781 10780 10777 10774 10771 10768 10765 10762 10759 10756 10753 10750 10747 10744 10742 10739 10736 10733 10731 10728 10726 10723 10721 10718 10716 10714
10807 10808 10811 10813 10815 10816 10817 10819 10819 10819 10820 10820 10821 10823 10823 10825 10826 10828 10827 10825 10823 10822 10820 10822 10821 10819 10817 10816 10815 10814 10814 10813 10812 10811 10812 10811 10810 10810 10810 10809 10808 10808 10807 10806 10805 10803 10802 10801 10799 10797 10795 10793 10791 10789 10789 10786 10783 10780 10777 10776 10775 10773 10770 10767 10763 10760 10758 10755 10752 10749 10746 10743 10739 10736 10734 10731 10728 10726 10723 10721 10718 10715 10713 10710 10708
10804 10804 10807 10809 10811 10813 10813 10815 10816 10816 10816 10816 10817 10819 10819 10821 10823 10824 10823 10821 10819 10818 10818 10819 10818 10815 10814 10813 10812 10811 10810 10810 10809 10808 10808 10808 10807 10806 10806 10805 10804 10804 10804 10803 10801 10799 10798 10797 10796 10795 10793 10790 10787 10785 10785 10783 10780 10776 10772 10770 10769 10768 10765 10762 10760 10757 10754 10752 10749 10746 10743 10739 10735 10731 10729 10726 10723 10720 10718 10715 10713 10710 10707 10704 10702
10800 10801 10803 10805 10807 10810 10809 10812 10813 10813 10813 10813 10814 10815 10816 10818 10819 10819 10818 10817 10815 10814 10815 10815 10813 10811 10811 10810 10809 10808 10807 10806 10805 10805 10805 10805 10804 10803 10802 10801 10800 10800 10799 10798 10797 10795 10794 10792 10791 10791 10790 10787 10784 10782 10781 10779 10776 10772 10768 10765 10763 10762 10760 10757 10755 10752 10750 10747 10744 10742 10739 10735 10731 10727 10724 10721 10718 10715 10713 10711 10708 10705 10702 10699 10696
10796 10798 10799 10801 10804 10806 10806 10808 10810 10810 10810 10810 10811 10811 10813 10815 10816 10815 10813 10813 10812 10810 10811 10811 10810 10808 10807 10807 10806 10805 10803 10803 10802 10802 10802 10802 10800 10799 10798 10797 10796 10796 10795 10794 10792 10791 10789 10787 10787 10787 10785 10782 10781 10779 10777 10775 10773 10770 10765 10761 10758 10756 10754 10752 10749 10746 10743 10740 10737 10735 10733 10730 10727 10724 10720 10716 10713 10711 10708 10706 10703 10700 10697 10694 10691
10791 10793 10796 10797 10800 10802 10803 10805 10806 10807 10806 10806 10808 10808 10810 10811 10812 10811 10809 10809 10808 10806 10806 10807 10807 10805 10804 10803 10803 10802 10800 10799 10798 10798 10799 10798 10797 10795 10794 10793 10793 10792 10791 10789 10788 10787 10785 10784 10784 10782 10780 10778 10777 10775 10774 10772 10769 10767 10764 10760 10756 10752 10749 10746 10743 10740 10736 10734 10731 10729 10726 10724 10722 10719 10716 10712 10709 10707 10704 10702 10699 10696 10692 10689 10686
10786 10789 10792 10793 10795 10798 10800 10802 10803 10803 10802 10803 10805 10805 10806 10807 10808 10808 10806 10806 10803 10801 10802 10803 10803 10801 10800 10800 10799 10799 10797 10796 10795 10795 10796 10795 10793 10792 10791 10790 10790 10789 10787 10786 10784 10783 10782 10781 10780 10777 10776 10775 10773 10771 10770 10768 10766 10764 10762 10759 10756 10751 10747 10742 10738 10734 10731 10728 10725 10722 10719 10717 10715 10712 10710 10708 10705 10703 10700 10697 10694 10690 10687 10683 10679
10781 10785 10788 10789 10791 10794 10797 10799 10799 10799 10799 10800 10801 10802 10803 10802 10803 10805 10804 10802 10799 10798 10799 10799 10799 10798 10797 10796 10796 10795 10794 10793 10792 10792 10792 10791 10789 10788 10787 10786 10786 10785 10784 10782 10781 10780 10779 10777 10776 10773 10772 10771 10769 10767 10765 10763 10762 10760 10758 10755 10752 10748 10745 10741 10737 10732 10728 10724 10721 10717 10714 10711 10709 10707 10704 10702 10700 10697 10694 10691 10688 10684 10681 10676 10672
10777 10780 10782 10784 10787 10790 10793 10794 10795 10795 10795 10797 10798 10798 10799 10798 10799 10801 10800 10799 10796 10795 10796 10796 10795 10794 10794 10793 10793 10792 10791 10791 10790 10790 10789 10787 10786 10784 10783 10783 10783 10782 10780 10779 10778 10777 10776 10774 10773 10770 10768 10767 10765 10763 10761 10759 10757 10754 10752 10749 10746 10743 10740 10737 10733 10730 10726 10722 10718 10715 10712 10709 10706 10703 10700 10697 10694 10692 10688 10685 10682 10678 10674 10670 10666
10772 10775 10777 10780 10783 10786 10788 10790 10791 10791 10792 10793 10794 10795 10795 10794 10795 10796 10796 10795 10793 10792 10792 10792 10791 10790 10790 10790 10789 10788 10787 10787 10787 10788 10787 10785 10784 10782 10781 10780 10780 10779 10777 10777 10775 10773 10772 10770 10769 10766 10764 10763 10761 10759 10757 10754 10752 10749 10747 10744 10740 10737 10734 10731 10727 10725 10722 10718 10715 10712 10709 10707 10704 10700 10696 10693 10689 10686 10682 10678 10675 10671 10667 10663 10658
10768 10770 10772 10775 10779 10781 10783 10786 10786 10786 10788 10790 10790 10791 10791 10790 10791 10791 10791 10791 10790 10788 10788 10788 10788 10787 10787 10786 10786 10785 10784 10783 10782 10783 10783 10781 10781 10779 10778 10777 10777 10775 10774 10773 10771 10769 10768 10766 10765 10763 10760 10759 10757 10755 10752 10750 10747 10744 10741 10738 10735 10732 10729 10725 10722 10719 10716 10714 10711 10708 10705 10702 10699 10695 10691 10687 10683 10679 10675 10671 10667 10663 10659 10654 10650
10762 10764 10768 10771 10774 10776 10779 10781 10781 10782 10784 10785 10786 10787 10786 10786 10787 10786 10787 10788 10786 10784 10784 10783 10784 10784 10784 10783 10783 10782 10781 10780 10778 10778 10778 10777 10776 10775 10774 10772 10772 10771 10769 10768 10767 10765 10763 10762 10760 10758 10756 10755 10753 10751 10748 10745 10742 10739 10736 10733 10730 10726 10723 10720 10717 10714 10712 10709 10706 10703 10700 10697 10693 10690 10686 10681 10677 10673 10669 10665 10661 10656 10652 10647 10642
10757 10760 10764 10767 10770 10771 10773 10775 10776 10777 10779 10781 10782 10782 10782 10782 10782 10782 10783 10783 10782 10780 10779 10779 10779 10780 10780 10780 10780 10780 10779 10778 10776 10775 10774 10772 10771 10770 10769 10767 10767 10766 10764 10763 10762 10761 10758 10757 10756 10754 10752 10750 10748 10746 10743 10740 10737 10734 10731 10728 10724 10720 10718 10716 10713 10710 10707 10704 10701 10698 10694 10691 10687 10684 10680 10676 10672 10667 10663 10659 10654 10649 10645 10641 10636
10752 10757 10762 10764 10764 10765 10768 10770 10771 10773 10775 10777 10777 10777 10778 10778 10777 10777 10778 10779 10778 10776 10775 10775 10775 10776 10776 10777 10777 10776 10776 10775 10774 10773 10772 10770 10768 10766 10765 10763 10762 10762 10761 10759 10758 10756 10754 10753 10751 10749 10747 10745 10744 10741 10738 10735 10731 10728 10726 10722 10719 10715 10713 10711 10708 10705 10702 10698 10695 10692 10688 10685 10682 10678 10674 10670 10666 10661 10657 10652 10648 10643 10639 10635 10631
10748 10754 10758 10760 10759 10760 10763 10765 10766 10768 10770 10772 10773 10773 10774 10773 10772 10773 10774 10774 10773 10772 10771 10771 10771 10771 10772 10772 10773 10773 10772 10772 10771 10770 10769 10768 10766 10764 10762 10761 10760 10759 10758 10756 10754 10752 10749 10748 10747 10745 10742 10740 10738 10736 10733 10730 10726 10723 10720 10717 10714 10710 10708 10705 10703 10700 10697 10693 10690 10686 10683 10679 10676 10672 10667 10663 10659 10655 10650 10647 10643 10639 10635 10631 10626
10744 10749 10752 10754 10754 10756 10758 10760 10761 10763 10765 10767 10767 10768 10769 10769 10768 10768 10769 10769 10769 10768 10767 10766 10767 10767 10768 10768 10768 10768 10768 10768 10767 10766 10765 10764 10763 10760 10759 10758 10757 10756 10755 10753 10751 10747 10745 10743 10742 10740 10738 10735 10733 10730 10728 10725 10721 10717 10714 10712 10708 10705 10702 10700 10697 10695 10692 10688 10684 10681 10678 10674 10670 10667 10662 10657 10653 10649 10645 10641 10638 10634 10630 10625 10620
10739 10743 10745 10748 10750 10751 10753 10754 10755 10758 10761 10762 10762 10763 10764 10764 10764 10763 10764 10765 10765 10764 10762 10762 10763 10763 10764 10764 10763 10763 10763 10763 10762 10761 10760 10760 10758 10756 10755 10754 10753 10752 10751 10749 10746 10743 10740 10737 10736 10735 10733 10730 10727 10725 10722 10719 10716 10712 10708 10706 10703 10700 10697 10695 10693 10690 10687 10684 10680 10676 10672 10668 10664 10661 10657 10652 10648 10644 10640 10637 10633 10628 10624 10619 10615
10733 10737 10740 10742 10744 10745 10748 10750 10751 10753 10755 10756 10757 10758 10759 10760 10760 10759 10759 10760 10760 10760 10758 10758 10758 10759 10759 10759 10758 10758 10758 10758 10757 10756 10755 10754 10753 10752 10750 10749 10748 10746 10745 10743 10741 10738 10735 10732 10730 10729 10727 10725 10722 10719 10716 10713 10710 10706 10703 10701 10698 10695 10693 10690 10688 10686 10683 10680 10676 10672 10667 10663 10659 10656 10652 10648 10644 10640 10636 10632 10627 10623 10618 10614 10609
10728 10733 10735 10737 10738 10739 10743 10745 10746 10748 10750 10751 10752 10753 10755 10756 10755 10755 10754 10755 10756 10756 10754 10754 10754 10755 10755 10754 10753 10752 10752 10752 10751 10750 10749 10749 10748 10746 10744 10743 10742 10740 10738 10736 10734 10732 10730 10727 10725 10723 10721 10719 10717 10714 10711 10707 10704 10701 10698 10696 10694 10691 10688 10686 10683 10680 10678 10675 10672 10668 10663 10659 10654 10651 10647 10643 10639 10636 10632 10627 10623 10618 10614 10609 10605
10723 10728 10731 10731 10732 10734 10737 10740 10741 10743 10745 10746 10747 10748 10750 10751 10751 10750 10750 10750 10752 10752 10751 10750 10750 10751 10750 10749 10748 10747 10747 10747 10746 10745 10744 10743 10742 10741 10739 10738 10737 10734 10731 10729 10728 10726 10724 10722 10720 10717 10715 10713 10711 10709 10706 10703 10699 10697 10693 10691 10688 10685 10683 10680 10678 10675 10672 10670 10666 10663 10659 10654 10650 10646 10643 10639 10634 10631 10628 10623 10619 10615 10610 10606 10601
10718 10723 10727 10726 10726 10728 10731 10734 10736 10738 10740 10741 10742 10743 10745 10746 10746 10746 10746 10746 10747 10747 10746 10746 10746 10746 10746 10745 10744 10743 10742 10741 10740 10740 10739 10737 10736 10735 10734 10733 10731 10728 10725 10723 10722 10721 10718 10716 10715 10713 10710 10707 10705 10703 10700 10698 10695 10692 10689 10686 10683 10680 10677 10675 10673 10670 10667 10665 10661 10658 10654 10650 10646 10643 10640 10636 10631 10627 10623 10619 10615 10610 10606 10601 10596
10713 10718 10721 10721 10721 10723 10726 10729 10731 10733 10735 10736 10738 10739 10740 10741 10742 10742 10742 10742 10743 10743 10742 10742 10742 10742 10741 10740 10739 10738 10738 10736 10736 10735 10734 10732 10731 10730 10729 10728 10726 10722 10718 10717 10717 10715 10713 10711 10709 10708 10706 10703 10700 10698 10696 10693 10691 10688 10685 10682 10679 10676 10673 10670 10668 10666 10663 10660 10657 10653 10650 10646 10643 10640 10636 10632 10627 10622 10619 10614 10609 10605 10600 10594 10589